Wetterdaten: Samstag, 28.02.2015
Datum Zeit Temp. A. Feuchte A. Luftdruck Regen Wind Richtung Richtung Sonnenschein ET UV Solar Taupunkt Windchill Windben Empfang
28.02.2015 00:00 3,2 C 75 % 1016,7 hPa 0,0 l/m 4,3 km/h (1 Bft) W-SW 250 0 min 0,000 mm 0,0 UV-I 0 W/m -0,8 C 3,2 C 7,9 km/h (2 Bft) 0,00 %
28.02.2015 00:15 3,0 C 75 % 1017,1 hPa 0,0 l/m 0,4 km/h (0 Bft) NO 51 0 min 0,000 mm 0,0 UV-I 0 W/m -1,0 C 3,0 C 4,0 km/h (1 Bft) 0,00 %
28.02.2015 00:30 3,0 C 75 % 1017,2 hPa 0,0 l/m 4,7 km/h (1 Bft) W-SW 255 0 min 0,000 mm 0,0 UV-I 0 W/m -1,0 C 3,0 C 11,9 km/h (2 Bft) 0,00 %
28.02.2015 00:45 2,9 C 75 % 1017,2 hPa 0,0 l/m 0,0 km/h (0 Bft) W-SW 252 0 min 0,000 mm 0,0 UV-I 0 W/m -1,1 C 2,9 C 0,0 km/h (0 Bft) 0,00 %
28.02.2015 01:00 2,8 C 75 % 1017,3 hPa 0,0 l/m 0,0 km/h (0 Bft) N-NW 344 0 min 0,000 mm 0,0 UV-I 0 W/m -1,2 C 2,8 C 0,0 km/h (0 Bft) 0,00 %
28.02.2015 01:15 2,5 C 76 % 1017,6 hPa 0,0 l/m 0,0 km/h (0 Bft) S 172 0 min 0,000 mm 0,0 UV-I 0 W/m -1,3 C 2,5 C 0,0 km/h (0 Bft) 0,00 %
28.02.2015 01:30 2,5 C 75 % 1017,5 hPa 0,0 l/m 0,4 km/h (0 Bft) S 184 0 min 0,000 mm 0,0 UV-I 0 W/m -1,5 C 2,5 C 4,0 km/h (1 Bft) 0,00 %
28.02.2015 01:45 2,5 C 76 % 1017,7 hPa 0,0 l/m 0,4 km/h (0 Bft) N-NW 328 0 min 0,000 mm 0,0 UV-I 0 W/m -1,3 C 2,5 C 4,0 km/h (1 Bft) 0,00 %
28.02.2015 02:00 2,5 C 75 % 1017,6 hPa 0,0 l/m 0,7 km/h (0 Bft) W-SW 256 0 min 0,000 mm 0,0 UV-I 0 W/m -1,5 C 2,5 C 4,0 km/h (1 Bft) 0,00 %
28.02.2015 02:15 2,4 C 71 % 1017,6 hPa 0,0 l/m 0,0 km/h (0 Bft) W-SW 253 0 min 0,000 mm 0,0 UV-I 0 W/m -2,3 C 2,4 C 0,0 km/h (0 Bft) 0,00 %
28.02.2015 02:30 2,3 C 72 % 1017,7 hPa 0,0 l/m 0,7 km/h (0 Bft) W 280 0 min 0,000 mm 0,0 UV-I 0 W/m -2,2 C 2,3 C 4,0 km/h (1 Bft) 0,00 %
28.02.2015 02:45 2,3 C 72 % 1017,7 hPa 0,0 l/m 0,0 km/h (0 Bft) O-NO 60 0 min 0,000 mm 0,0 UV-I 0 W/m -2,2 C 2,3 C 0,0 km/h (0 Bft) 0,00 %
28.02.2015 03:00 2,2 C 73 % 1017,7 hPa 0,0 l/m 0,0 km/h (0 Bft) S 174 0 min 0,000 mm 0,0 UV-I 0 W/m -2,1 C 2,2 C 0,0 km/h (0 Bft) 0,00 %
28.02.2015 03:15 2,1 C 74 % 1017,7 hPa 0,0 l/m 2,2 km/h (1 Bft) S-SW 210 0 min 0,000 mm 0,0 UV-I 0 W/m -2,0 C 2,1 C 4,0 km/h (1 Bft) 0,00 %
28.02.2015 03:30 2,0 C 77 % 1018,0 hPa 0,0 l/m 1,4 km/h (1 Bft) W-SW 252 0 min 0,000 mm 0,0 UV-I 0 W/m -1,6 C 2,0 C 4,0 km/h (1 Bft) 0,00 %
28.02.2015 03:45 1,9 C 78 % 1018,0 hPa 0,0 l/m 0,0 km/h (0 Bft) N-NW 343 0 min 0,000 mm 0,0 UV-I 0 W/m -1,5 C 1,9 C 0,0 km/h (0 Bft) 0,00 %
28.02.2015 04:00 1,8 C 78 % 1018,1 hPa 0,0 l/m 0,0 km/h (0 Bft) S-SW 206 0 min 0,000 mm 0,0 UV-I 0 W/m -1,6 C 1,8 C 0,0 km/h (0 Bft) 0,00 %
28.02.2015 04:15 1,8 C 78 % 1018,2 hPa 0,0 l/m 9,0 km/h (2 Bft) W-SW 255 0 min 0,000 mm 0,0 UV-I 0 W/m -1,6 C -0,6 C 11,9 km/h (2 Bft) 0,00 %
28.02.2015 04:30 1,8 C 78 % 1018,6 hPa 0,3 l/m 0,0 km/h (0 Bft) SW 233 0 min 0,000 mm 0,0 UV-I 0 W/m -1,6 C 1,8 C 0,0 km/h (0 Bft) 0,00 %
28.02.2015 04:45 1,8 C 78 % 1018,6 hPa 0,0 l/m 0,0 km/h (0 Bft) SO 130 0 min 0,000 mm 0,0 UV-I 0 W/m -1,6 C 1,8 C 0,0 km/h (0 Bft) 0,00 %
28.02.2015 05:00 1,7 C 78 % 1018,8 hPa 0,0 l/m 0,4 km/h (0 Bft) SW 217 0 min 0,000 mm 0,0 UV-I 0 W/m -1,7 C 1,7 C 4,0 km/h (1 Bft) 0,00 %
28.02.2015 05:15 1,7 C 78 % 1018,5 hPa 0,0 l/m 0,7 km/h (0 Bft) W-SW 254 0 min 0,000 mm 0,0 UV-I 0 W/m -1,7 C 1,7 C 4,0 km/h (1 Bft) 0,00 %
28.02.2015 05:30 1,7 C 78 % 1018,8 hPa 0,0 l/m 0,0 km/h (0 Bft) S-SW 209 0 min 0,000 mm 0,0 UV-I 0 W/m -1,7 C 1,7 C 0,0 km/h (0 Bft) 0,00 %
28.02.2015 05:45 1,7 C 78 % 1019,0 hPa 0,0 l/m 0,0 km/h (0 Bft) O-SO 104 0 min 0,000 mm 0,0 UV-I 0 W/m -1,7 C 1,7 C 0,0 km/h (0 Bft) 0,00 %
28.02.2015 06:00 1,6 C 79 % 1019,0 hPa 0,0 l/m 0,0 km/h (0 Bft) S-SW 203 0 min 0,000 mm 0,0 UV-I 0 W/m -1,6 C 1,6 C 0,0 km/h (0 Bft) 0,00 %
28.02.2015 06:15 1,6 C 79 % 1019,1 hPa 0,0 l/m 0,0 km/h (0 Bft) SW 218 0 min 0,000 mm 0,0 UV-I 0 W/m -1,6 C 1,6 C 0,0 km/h (0 Bft) 0,00 %
28.02.2015 06:30 1,6 C 79 % 1019,3 hPa 0,0 l/m 1,4 km/h (1 Bft) W-NW 282 0 min 0,000 mm 0,0 UV-I 0 W/m -1,6 C 1,6 C 4,0 km/h (1 Bft) 0,00 %
28.02.2015 06:45 1,6 C 79 % 1019,5 hPa 0,0 l/m 3,2 km/h (1 Bft) W-SW 253 0 min 0,000 mm 0,0 UV-I 0 W/m -1,6 C 1,6 C 4,0 km/h (1 Bft) 0,00 %
28.02.2015 07:00 1,7 C 79 % 1019,6 hPa 0,0 l/m 1,8 km/h (1 Bft) SW 234 0 min 0,000 mm 0,0 UV-I 0 W/m -1,5 C 1,7 C 4,0 km/h (1 Bft) 0,00 %
28.02.2015 07:15 1,7 C 78 % 1019,9 hPa 0,0 l/m 1,4 km/h (1 Bft) W-SW 250 0 min 0,000 mm 0,0 UV-I 1 W/m -1,7 C 1,7 C 4,0 km/h (1 Bft) 0,00 %
28.02.2015 07:30 1,8 C 78 % 1020,1 hPa 0,0 l/m 0,4 km/h (0 Bft) S-SW 198 0 min 0,000 mm 0,0 UV-I 5 W/m -1,6 C 1,8 C 4,0 km/h (1 Bft) 0,00 %
28.02.2015 07:45 1,8 C 78 % 1020,2 hPa 0,0 l/m 0,0 km/h (0 Bft) W-SW 254 0 min 0,000 mm 0,0 UV-I 7 W/m -1,6 C 1,8 C 0,0 km/h (0 Bft) 0,00 %
28.02.2015 08:00 1,8 C 78 % 1020,2 hPa 0,0 l/m 0,4 km/h (0 Bft) W-SW 253 0 min 0,000 mm 0,0 UV-I 25 W/m -1,6 C 1,8 C 4,0 km/h (1 Bft) 0,00 %
28.02.2015 08:15 1,9 C 78 % 1020,5 hPa 0,0 l/m 0,0 km/h (0 Bft) S 187 0 min 0,000 mm 0,0 UV-I 35 W/m -1,5 C 1,9 C 0,0 km/h (0 Bft) 0,00 %
28.02.2015 08:30 2,0 C 78 % 1020,5 hPa 0,0 l/m 0,0 km/h (0 Bft) SW 228 0 min 0,000 mm 0,0 UV-I 31 W/m -1,4 C 2,0 C 0,0 km/h (0 Bft) 0,00 %
28.02.2015 08:45 2,0 C 78 % 1020,7 hPa 0,0 l/m 0,0 km/h (0 Bft) SW 216 0 min 0,000 mm 0,0 UV-I 28 W/m -1,4 C 2,0 C 0,0 km/h (0 Bft) 0,00 %
28.02.2015 09:00 2,1 C 78 % 1020,8 hPa 0,0 l/m 0,0 km/h (0 Bft) W-NW 303 0 min 0,000 mm 1,0 UV-I 41 W/m -1,3 C 2,1 C 0,0 km/h (0 Bft) 0,00 %
28.02.2015 09:15 2,2 C 78 % 1020,8 hPa 0,0 l/m 2,2 km/h (1 Bft) W-SW 255 0 min 0,000 mm 1,0 UV-I 81 W/m -1,2 C 2,2 C 4,0 km/h (1 Bft) 0,00 %
28.02.2015 09:30 2,4 C 77 % 1020,9 hPa 0,0 l/m 2,2 km/h (1 Bft) W-NW 293 0 min 0,000 mm 1,0 UV-I 82 W/m -1,2 C 2,4 C 7,9 km/h (2 Bft) 0,00 %
28.02.2015 09:45 2,5 C 81 % 1020,9 hPa 0,0 l/m 1,8 km/h (1 Bft) W-SW 246 0 min 0,000 mm 1,0 UV-I 91 W/m -0,4 C 2,5 C 4,0 km/h (1 Bft) 0,00 %
28.02.2015 10:00 2,6 C 82 % 1021,2 hPa 0,0 l/m 2,9 km/h (1 Bft) S-SW 213 0 min 0,000 mm 1,0 UV-I 91 W/m -0,2 C 2,6 C 7,9 km/h (2 Bft) 0,00 %
28.02.2015 10:15 2,3 C 78 % 1021,1 hPa 0,0 l/m 0,4 km/h (0 Bft) S-SW 210 0 min 0,000 mm 1,0 UV-I 97 W/m -1,1 C 2,3 C 4,0 km/h (1 Bft) 0,00 %
28.02.2015 10:30 2,6 C 82 % 1021,0 hPa 0,0 l/m 2,2 km/h (1 Bft) SW 221 0 min 0,000 mm 2,0 UV-I 139 W/m -0,2 C 2,6 C 4,0 km/h (1 Bft) 0,00 %
28.02.2015 10:45 2,8 C 80 % 1021,2 hPa 0,0 l/m 0,0 km/h (0 Bft) W-SW 252 0 min 0,000 mm 2,0 UV-I 121 W/m -0,3 C 2,8 C 0,0 km/h (0 Bft) 0,00 %
28.02.2015 11:00 3,1 C 79 % 1021,2 hPa 0,0 l/m 0,4 km/h (0 Bft) SW 221 0 min 0,000 mm 2,0 UV-I 143 W/m -0,2 C 3,1 C 4,0 km/h (1 Bft) 0,00 %
28.02.2015 11:15 3,4 C 77 % 1021,3 hPa 0,0 l/m 1,4 km/h (1 Bft) W-SW 254 0 min 0,000 mm 2,0 UV-I 144 W/m -0,2 C 3,4 C 4,0 km/h (1 Bft) 0,00 %
28.02.2015 11:30 3,8 C 74 % 1021,1 hPa 0,0 l/m 1,4 km/h (1 Bft) W-SW 253 0 min 0,000 mm 2,0 UV-I 196 W/m -0,4 C 3,8 C 4,0 km/h (1 Bft) 0,00 %
28.02.2015 11:45 4,0 C 73 % 1021,2 hPa 0,0 l/m 0,7 km/h (0 Bft) W-SW 256 0 min 0,000 mm 2,0 UV-I 180 W/m -0,4 C 4,0 C 4,0 km/h (1 Bft) 0,00 %
28.02.2015 12:00 4,3 C 71 % 1020,9 hPa 0,0 l/m 0,0 km/h (0 Bft) S-SW 193 0 min 0,000 mm 2,0 UV-I 183 W/m -0,5 C 4,3 C 0,0 km/h (0 Bft) 0,00 %
28.02.2015 12:15 4,1 C 72 % 1020,8 hPa 0,0 l/m 1,4 km/h (1 Bft) S-SO 148 0 min 0,000 mm 2,0 UV-I 166 W/m -0,5 C 4,1 C 4,0 km/h (1 Bft) 0,00 %
28.02.2015 12:30 4,7 C 70 % 1020,7 hPa 0,0 l/m 0,4 km/h (0 Bft) W-SW 256 0 min 0,000 mm 2,0 UV-I 210 W/m -0,3 C 4,7 C 4,0 km/h (1 Bft) 0,00 %
28.02.2015 12:45 4,3 C 70 % 1020,5 hPa 0,0 l/m 1,4 km/h (1 Bft) W-SW 252 0 min 0,000 mm 1,0 UV-I 126 W/m -0,7 C 4,3 C 4,0 km/h (1 Bft) 0,00 %
28.02.2015 13:00 4,3 C 70 % 1020,4 hPa 0,0 l/m 0,0 km/h (0 Bft) S-SW 209 0 min 0,000 mm 1,0 UV-I 142 W/m -0,7 C 4,3 C 0,0 km/h (0 Bft) 0,00 %
28.02.2015 13:15 4,1 C 70 % 1020,0 hPa 0,0 l/m 0,7 km/h (0 Bft) W-SW 251 0 min 0,000 mm 2,0 UV-I 127 W/m -0,9 C 4,1 C 4,0 km/h (1 Bft) 0,00 %
28.02.2015 13:30 4,6 C 67 % 1019,7 hPa 0,0 l/m 0,0 km/h (0 Bft) SW 226 0 min 0,000 mm 2,0 UV-I 184 W/m -1,0 C 4,6 C 0,0 km/h (0 Bft) 0,00 %
28.02.2015 13:45 5,1 C 64 % 1019,8 hPa 0,0 l/m 0,0 km/h (0 Bft) W-SW 251 0 min 0,000 mm 2,0 UV-I 221 W/m -1,1 C 5,1 C 0,0 km/h (0 Bft) 0,00 %
28.02.2015 14:00 5,4 C 64 % 1019,3 hPa 0,0 l/m 3,2 km/h (1 Bft) W-SW 251 0 min 0,000 mm 2,0 UV-I 223 W/m -0,9 C 5,4 C 4,0 km/h (1 Bft) 0,00 %
28.02.2015 14:15 5,3 C 64 % 1019,4 hPa 0,0 l/m 0,4 km/h (0 Bft) W-SW 251 0 min 0,000 mm 2,0 UV-I 201 W/m -0,9 C 5,3 C 4,0 km/h (1 Bft) 0,00 %
28.02.2015 14:30 5,6 C 63 % 1019,1 hPa 0,0 l/m 0,0 km/h (0 Bft) SW 218 0 min 0,000 mm 2,0 UV-I 167 W/m -0,9 C 5,6 C 0,0 km/h (0 Bft) 0,00 %
28.02.2015 14:45 5,3 C 64 % 1019,1 hPa 0,0 l/m 0,7 km/h (0 Bft) W-SW 256 0 min 0,000 mm 1,0 UV-I 148 W/m -0,9 C 5,3 C 4,0 km/h (1 Bft) 0,00 %
28.02.2015 15:00 4,8 C 67 % 1019,2 hPa 0,0 l/m 0,7 km/h (0 Bft) SW 232 0 min 0,000 mm 1,0 UV-I 108 W/m -0,8 C 4,8 C 4,0 km/h (1 Bft) 0,00 %
28.02.2015 15:15 4,6 C 68 % 1019,1 hPa 0,0 l/m 0,0 km/h (0 Bft) SW 218 0 min 0,000 mm 1,0 UV-I 86 W/m -0,8 C 4,6 C 0,0 km/h (0 Bft) 0,00 %
28.02.2015 15:30 4,8 C 67 % 1019,2 hPa 0,0 l/m 2,2 km/h (1 Bft) W-NW 289 15 min 0,000 mm 1,0 UV-I 275 W/m -0,8 C 4,8 C 4,0 km/h (1 Bft) 0,00 %
28.02.2015 15:45 4,9 C 67 % 1018,7 hPa 0,0 l/m 0,0 km/h (0 Bft) W-SW 251 15 min 0,000 mm 1,0 UV-I 280 W/m -0,7 C 4,9 C 0,0 km/h (0 Bft) 0,00 %
28.02.2015 16:00 4,9 C 65 % 1018,6 hPa 0,0 l/m 0,0 km/h (0 Bft) S-SW 207 15 min 0,000 mm 1,0 UV-I 270 W/m -1,1 C 4,9 C 0,0 km/h (0 Bft) 0,00 %
28.02.2015 16:15 4,9 C 65 % 1018,6 hPa 0,0 l/m 0,0 km/h (0 Bft) W-NW 291 15 min 0,000 mm 1,0 UV-I 260 W/m -1,1 C 4,9 C 0,0 km/h (0 Bft) 0,00 %
28.02.2015 16:30 5,1 C 64 % 1018,5 hPa 0,0 l/m 0,0 km/h (0 Bft) N-NW 335 15 min 0,000 mm 1,0 UV-I 228 W/m -1,1 C 5,1 C 0,0 km/h (0 Bft) 0,00 %
28.02.2015 16:45 4,7 C 65 % 1018,5 hPa 0,0 l/m 0,0 km/h (0 Bft) N-NW 339 15 min 0,000 mm 1,0 UV-I 243 W/m -1,3 C 4,7 C 0,0 km/h (0 Bft) 0,00 %
28.02.2015 17:00 4,5 C 66 % 1018,4 hPa 0,0 l/m 0,0 km/h (0 Bft) SW 231 15 min 0,000 mm 0,0 UV-I 115 W/m -1,3 C 4,5 C 0,0 km/h (0 Bft) 0,00 %
28.02.2015 17:15 3,9 C 68 % 1018,6 hPa 0,0 l/m 0,0 km/h (0 Bft) SW 225 15 min 0,000 mm 0,0 UV-I 41 W/m -1,5 C 3,9 C 0,0 km/h (0 Bft) 0,00 %
28.02.2015 17:30 3,2 C 72 % 1018,6 hPa 0,0 l/m 0,0 km/h (0 Bft) SW 225 0 min 0,000 mm 0,0 UV-I 7 W/m -1,3 C 3,2 C 0,0 km/h (0 Bft) 0,00 %
28.02.2015 17:45 2,7 C 75 % 1018,8 hPa 0,0 l/m 0,0 km/h (0 Bft) SO 130 0 min 0,000 mm 0,0 UV-I 0 W/m -1,3 C 2,7 C 0,0 km/h (0 Bft) 0,00 %
28.02.2015 18:00 2,3 C 74 % 1018,9 hPa 0,0 l/m 0,0 km/h (0 Bft) S 176 0 min 0,000 mm 0,0 UV-I 0 W/m -1,8 C 2,3 C 0,0 km/h (0 Bft) 0,00 %
28.02.2015 18:15 1,9 C 76 % 1019,0 hPa 0,0 l/m 0,0 km/h (0 Bft) S 190 0 min 0,000 mm 0,0 UV-I 0 W/m -1,9 C 1,9 C 0,0 km/h (0 Bft) 0,00 %
28.02.2015 18:30 1,5 C 79 % 1019,2 hPa 0,0 l/m 0,0 km/h (0 Bft) S-SW 202 0 min 0,000 mm 0,0 UV-I 0 W/m -1,7 C 1,5 C 0,0 km/h (0 Bft) 0,00 %
28.02.2015 18:45 1,2 C 80 % 1019,3 hPa 0,0 l/m 0,0 km/h (0 Bft) SW 214 0 min 0,000 mm 0,0 UV-I 0 W/m -1,9 C 1,2 C 0,0 km/h (0 Bft) 0,00 %
28.02.2015 19:00 1,0 C 81 % 1019,5 hPa 0,0 l/m 0,0 km/h (0 Bft) SW 214 0 min 0,000 mm 0,0 UV-I 0 W/m -1,9 C 1,0 C 0,0 km/h (0 Bft) 0,00 %
28.02.2015 19:15 1,0 C 81 % 1019,4 hPa 0,0 l/m 0,0 km/h (0 Bft) SW 224 0 min 0,000 mm 0,0 UV-I 0 W/m -1,9 C 1,0 C 0,0 km/h (0 Bft) 0,00 %
28.02.2015 19:30 1,2 C 80 % 1019,6 hPa 0,0 l/m 0,0 km/h (0 Bft) S-SW 199 0 min 0,000 mm 0,0 UV-I 0 W/m -1,9 C 1,2 C 0,0 km/h (0 Bft) 0,00 %
28.02.2015 19:45 1,0 C 80 % 1019,2 hPa 0,0 l/m 0,0 km/h (0 Bft) S-SW 200 0 min 0,000 mm 0,0 UV-I 0 W/m -2,1 C 1,0 C 0,0 km/h (0 Bft) 0,00 %
28.02.2015 20:00 0,8 C 81 % 1019,3 hPa 0,0 l/m 0,0 km/h (0 Bft) S-SW 195 0 min 0,000 mm 0,0 UV-I 0 W/m -2,1 C 0,8 C 0,0 km/h (0 Bft) 0,00 %
28.02.2015 20:15 0,7 C 81 % 1019,5 hPa 0,0 l/m 0,0 km/h (0 Bft) S 180 0 min 0,000 mm 0,0 UV-I 0 W/m -2,2 C 0,7 C 0,0 km/h (0 Bft) 0,00 %
28.02.2015 20:30 0,8 C 81 % 1019,2 hPa 0,0 l/m 0,0 km/h (0 Bft) S 181 0 min 0,000 mm 0,0 UV-I 0 W/m -2,1 C 0,8 C 0,0 km/h (0 Bft) 0,00 %
28.02.2015 20:45 0,9 C 81 % 1019,1 hPa 0,0 l/m 0,0 km/h (0 Bft) S 183 0 min 0,000 mm 0,0 UV-I 0 W/m -2,0 C 0,9 C 0,0 km/h (0 Bft) 0,00 %
28.02.2015 21:00 1,0 C 81 % 1019,0 hPa 0,0 l/m 0,0 km/h (0 Bft) S-SW 197 0 min 0,000 mm 0,0 UV-I 0 W/m -1,9 C 1,0 C 0,0 km/h (0 Bft) 0,00 %
28.02.2015 21:15 1,0 C 81 % 1018,7 hPa 0,0 l/m 0,0 km/h (0 Bft) S-SW 192 0 min 0,000 mm 0,0 UV-I 0 W/m -1,9 C 1,0 C 0,0 km/h (0 Bft) 0,00 %
28.02.2015 21:30 1,0 C 80 % 1018,8 hPa 0,0 l/m 0,0 km/h (0 Bft) S-SW 192 0 min 0,000 mm 0,0 UV-I 0 W/m -2,1 C 1,0 C 0,0 km/h (0 Bft) 0,00 %
28.02.2015 21:45 1,0 C 80 % 1018,6 hPa 0,0 l/m 0,0 km/h (0 Bft) S-SW 192 0 min 0,000 mm 0,0 UV-I 0 W/m -2,1 C 1,0 C 0,0 km/h (0 Bft) 0,00 %
28.02.2015 22:00 0,7 C 82 % 1018,4 hPa 0,0 l/m 0,0 km/h (0 Bft) S-SW 192 0 min 0,000 mm 0,0 UV-I 0 W/m -2,0 C 0,7 C 0,0 km/h (0 Bft) 0,00 %
28.02.2015 22:15 0,4 C 83 % 1018,0 hPa 0,0 l/m 0,0 km/h (0 Bft) S-SW 192 0 min 0,000 mm 0,0 UV-I 0 W/m -2,1 C 0,4 C 0,0 km/h (0 Bft) 0,00 %
28.02.2015 22:30 0,1 C 83 % 1017,7 hPa 0,0 l/m 0,0 km/h (0 Bft) S 185 0 min 0,000 mm 0,0 UV-I 0 W/m -2,4 C 0,1 C 0,0 km/h (0 Bft) 0,00 %
28.02.2015 22:45 -0,3 C 83 % 1017,7 hPa 0,0 l/m 0,0 km/h (0 Bft) S-SW 193 0 min 0,000 mm 0,0 UV-I 0 W/m -2,8 C -0,3 C 0,0 km/h (0 Bft) 0,00 %
28.02.2015 23:00 -0,5 C 84 % 1017,7 hPa 0,0 l/m 0,0 km/h (0 Bft) S-SW 192 0 min 0,000 mm 0,0 UV-I 0 W/m -2,9 C -0,5 C 0,0 km/h (0 Bft) 0,00 %
28.02.2015 23:15 -0,7 C 84 % 1017,7 hPa 0,0 l/m 0,0 km/h (0 Bft) S-SW 192 0 min 0,000 mm 0,0 UV-I 0 W/m -3,1 C -0,7 C 0,0 km/h (0 Bft) 0,00 %
28.02.2015 23:30 -1,0 C 85 % 1017,3 hPa 0,0 l/m 0,0 km/h (0 Bft) S 188 0 min 0,000 mm 0,0 UV-I 0 W/m -3,2 C -1,0 C 0,0 km/h (0 Bft) 0,00 %
28.02.2015 23:45 -1,1 C 85 % 1017,4 hPa 0,0 l/m 0,0 km/h (0 Bft) S 185 0 min 0,000 mm 0,0 UV-I 0 W/m -3,3 C -1,1 C 0,0 km/h (0 Bft) 0,00 %
_ Min-Zeit 23:45 14:30 00:00 - 00:45 - - - - - - 23:45 23:45 00:45 00:00
Minimum _ -1,1 C 63 % 1016,7 hPa - 0,0 km/h (0 Bft) - - - - - - -3,3 C -1,1 C 0,0 km/h (0 Bft) 0,00 %
_ Max-Zeit 14:30 23:30 11:15 04:30 04:15 - - 15:30 00:00 10:30 15:45 10:00 14:30 00:30 00:00
Maximum _ 5,6 C 85 % 1021,3 hPa 0,3 l/m 9,0 km/h
W-SW (2 Bft)
- - 15 min 0,000 mm 2,0 UV-I 280 W/m -0,2 C 5,6 C 11,9 km/h
W-SW (2 Bft)
0,00 %
Durchschnitt _ 2,4 C 76 % 1019,1 hPa #0,3 l/m 0,6 km/h (0 Bft) W-SW - #2:00 h #0,000 mm 1,5 UV-I 132 W/m -1,5 C 2,4 C 1,8 km/h (1 Bft) 0,00 %